H1 CPF 2 NER 2023 6 12 9 163 01 glonass143 H2 2007501 9143 46805 2023 6 12 0 0 0 2023 6 15 23 45 0 900 1 1 0 0 0 1 H9 10 0 60107 0.00000 0 10997867.615 -15778049.488 -16753302.075 10 0 60107 900.00000 0 12559574.915 -16906363.293 -14391570.316 10 0 60107 1800.00000 0 13787520.179 -17961954.579 -11750304.339 10 0 60107 2700.00000 0 14676669.152 -18884703.225 -8880852.858 10 0 60107 3600.00000 0 15234884.046 -19616694.680 -5838974.272 10 0 60107 4500.00000 0 15482343.759 -20104751.336 -2683751.209 10 0 60107 5400.00000 0 15450456.863 -20302781.468 523558.135 10 0 60107 6300.00000 0 15180314.634 -20173846.777 3720709.376 10 0 60107 7200.00000 0 14720750.552 -19691861.470 6845678.681 10 0 60107 8100.00000 0 14126089.075 -18842851.366 9837863.351 10 0 60107 9000.00000 0 13453679.262 -17625720.012 12639253.040 10 0 60107 9900.00000 0 12761317.597 -16052489.450 15195549.060 10 0 60107 10800.00000 0 12104668.686 -14148005.214 17457210.524 10 0 60107 11700.00000 0 11534792.259 -11949117.371 19380407.672 10 0 60107 12600.00000 0 11095880.237 -9503371.088 20927864.616 10 0 60107 13500.00000 0 10823298.590 -6867260.372 22069576.012 10 0 60107 14400.00000 0 10742015.888 -4104116.491 22783384.537 10 0 60107 15300.00000 0 10865484.322 -1281717.571 23055408.607 10 0 60107 16200.00000 0 11195020.126 1530282.823 22880312.476 10 0 60107 17100.00000 0 11719709.684 4263002.893 22261413.575 10 0 60107 18000.00000 0 12416845.826 6850947.116 21210624.774 10 0 60107 18900.00000 0 13252876.826 9234480.872 19748232.165 10 0 60107 19800.00000 0 14184829.273 11362063.458 17902511.762 10 0 60107 20700.00000 0 15162146.085 13192147.475 15709191.593 10 0 60107 21600.00000 0 16128863.401 14694666.088 13210768.460 10 0 60107 22500.00000 0 17026035.527 15852046.469 10455691.556 10 0 60107 23400.00000 0 17794306.269 16659707.301 7497427.937 10 0 60107 24300.00000 0 18376518.317 17126019.592 4393427.351 10 0 60107 25200.00000 0 18720250.265 17271732.641 1204006.277 10 0 60107 26100.00000 0 18780173.396 17128889.475 -2008827.028 10 0 60107 27000.00000 0 18520127.634 16739277.832 -5182583.207 10 0 60107 27900.00000 0 17914827.676 16152482.563 -8255513.967 10 0 60107 28800.00000 0 16951125.815 15423622.401 -11167821.032 10 0 60107 29700.00000 0 15628776.737 14610867.554 -13862827.460 10 0 60107 30600.00000 0 13960670.662 13772843.928 -16288087.641 10 0 60107 31500.00000 0 11972523.826 12966034.610 -18396413.613 10 0 60107 32400.00000 0 9702038.301 12242289.159 -20146797.243 10 0 60107 33300.00000 0 7197565.589 11646546.555 -21505210.059 10 0 60107 34200.00000 0 4516329.380 11214868.313 -22445265.160 10 0 60107 35100.00000 0 1722281.303 10972864.920 -22948728.534 10 0 60107 36000.00000 0 -1116321.208 10934581.874 -23005870.206 10 0 60107 36900.00000 0 -3929514.280 11101892.021 -22615648.815 10 0 60107 37800.00000 0 -6648296.350 11464419.410 -21785726.508 10 0 60107 38700.00000 0 -9207255.729 11999997.345 -20532314.256 10 0 60107 39600.00000 0 -11547048.234 12675640.868 -18879850.980 10 0 60107 40500.00000 0 -13616622.602 13448992.156 -16860522.967 10 0 60107 41400.00000 0 -15375101.996 14270177.481 -14513633.130 10 0 60107 42300.00000 0 -16793244.338 15083997.038 -11884832.529 10 0 60107 43200.00000 0 -17854421.901 15832354.951 -9025229.251 10 0 60107 44100.00000 0 -18555080.703 16456826.711 -5990392.122 10 0 60107 45000.00000 0 -18904662.060 16901255.461 -2839268.848 10 0 60107 45900.00000 0 -18924991.187 17114267.462 366960.161 10 0 60107 46800.00000 0 -18649160.055 17051600.458 3566069.786 10 0 60107 47700.00000 0 -18119952.824 16678146.676 6695996.714 10 0 60107 48600.00000 0 -17387881.242 15969624.230 9696040.920 10 0 60107 49500.00000 0 -16508913.541 14913806.434 12508038.895 10 0 60107 50400.00000 0 -15541992.950 13511257.047 15077485.981 10 0 60107 51300.00000 0 -14546450.429 11775540.253 17354586.548 10 0 60107 52200.00000 0 -13579420.319 9732895.931 19295212.224 10 0 60107 53100.00000 0 -12693367.176 7421393.039 20861750.352 10 0 60107 54000.00000 0 -11933827.123 4889595.419 22023827.068 10 0 60107 54900.00000 0 -11337457.908 2194794.339 22758891.761 10 0 60107 55800.00000 0 -10930478.910 -599120.103 23052652.239 10 0 60107 56700.00000 0 -10727566.092 -3424061.796 22899352.605 10 0 60107 57600.00000 0 -10731248.019 -6210327.543 22301888.579 10 0 60107 58500.00000 0 -10931828.348 -8889246.521 21271757.808 10 0 60107 59400.00000 0 -11307838.390 -11395791.747 19828845.593 10 0 60107 60300.00000 0 -11827001.294 -13671046.267 18001049.358 10 0 60107 61200.00000 0 -12447668.095 -15664422.407 15823748.097 10 0 60107 62100.00000 0 -13120665.969 -17335542.370 13339126.000 10 0 60107 63000.00000 0 -13791481.548 -18655702.076 10595362.276 10 0 60107 63900.00000 0 -14402687.718 -19608857.233 7645702.043 10 0 60107 64800.00000 0 -14896511.638 -20192090.352 4547425.656 10 0 60107 65700.00000 0 -15217435.305 -20415539.095 1360736.215 10 0 60107 66600.00000 0 -15314718.130 -20301788.934 -1852413.028 10 0 60107 67500.00000 0 -15144733.900 -19884755.834 -5029528.150 10 0 60107 68400.00000 0 -14673022.074 -19208106.337 -8108796.735 10 0 60107 69300.00000 0 -13875965.236 -18323282.178 -11030298.041 10 0 60107 70200.00000 0 -12742020.339 -17287213.460 -13737176.699 10 0 60107 71100.00000 0 -11272450.268 -16159817.684 -16176756.212 10 0 60107 72000.00000 0 -9481523.479 -15001391.016 -18301569.821 10 0 60107 72900.00000 0 -7396172.101 -13870002.591 -20070288.171 10 0 60107 73800.00000 0 -5055121.771 -12819002.345 -21448525.483 10 0 60107 74700.00000 0 -2507528.878 -11894747.792 -22409508.486 10 0 60107 75600.00000 0 188818.479 -11134645.630 -22934595.344 10 0 60107 76500.00000 0 2969661.189 -10565590.443 -23013634.819 10 0 60107 77400.00000 0 5766701.805 -10202865.817 -22645159.121 10 0 60107 78300.00000 0 8510208.239 -10049553.464 -21836407.164 10 0 60107 79200.00000 0 11131680.547 -10096474.447 -20603178.164 10 0 60107 80100.00000 0 13566470.255 -10322664.107 -18969518.786 10 0 60107 81000.00000 0 15756243.829 -10696359.805 -16967250.200 10 0 60107 81900.00000 0 17651188.452 -11176459.019 -14635344.398 10 0 60107 82800.00000 0 19211869.048 -11714385.545 -12019162.104 10 0 60107 83700.00000 0 20410660.161 -12256284.401 -9169567.237 10 0 60107 84600.00000 0 21232694.093 -12745452.231 -6141935.292 10 0 60107 85500.00000 0 21676286.960 -13124900.120 -2995075.162 10 0 60108 0.00000 0 21752826.248 -13339940.244 209914.131 10 0 60108 900.00000 0 21486125.948 -13340686.896 3410831.086 10 0 60108 1800.00000 0 20911277.667 -13084365.862 6545576.136 10 0 60108 2700.00000 0 20073047.230 -12537334.901 9553355.079 10 0 60108 3600.00000 0 19023884.921 -11676729.636 12375853.901 10 0 60108 4500.00000 0 17821633.688 -10491665.433 14958364.126 10 0 60108 5400.00000 0 16527031.902 -8983944.334 17250836.964 10 0 60108 6300.00000 0 15201115.464 -7168236.777 19208846.476 10 0 60108 7200.00000 0 13902627.979 -5071729.737 20794443.766 10 0 60108 8100.00000 0 12685547.025 -2733254.923 21976886.497 10 0 60108 9000.00000 0 11596829.442 -201932.135 22733230.384 10 0 60108 9900.00000 0 10674469.306 2464617.172 23048771.850 10 0 60108 10800.00000 0 9945949.179 5202413.430 22917333.715 10 0 60108 11700.00000 0 9427148.857 7943532.256 22341388.536 10 0 60108 12600.00000 0 9121756.984 10618688.857 21332017.006 10 0 60108 13500.00000 0 9021210.036 13159887.769 19908701.681 10 0 60108 14400.00000 0 9105161.355 15503029.121 18098959.225 10 0 60108 15300.00000 0 9342460.879 17590364.020 15937817.271 10 0 60108 16200.00000 0 9692604.809 19372697.521 13467144.939 10 0 60108 17100.00000 0 10107594.635 20811247.666 10734848.891 10 0 60108 18000.00000 0 10534127.488 21879082.988 7793949.648 10 0 60108 18900.00000 0 10916025.510 22562078.210 4701555.455 10 0 60108 19800.00000 0 11196801.403 22859347.839 1517753.299 10 0 60108 20700.00000 0 11322251.151 22783139.183 -1695561.270 10 0 60108 21600.00000 0 11242963.371 22358189.181 -4875892.356 10 0 60108 22500.00000 0 10916637.930 21620572.125 -7961365.842 10 0 60108 23400.00000 0 10310114.368 20616087.060 -10891940.699 10 0 60108 24300.00000 0 9401022.804 19398253.259 -13610585.022 10 0 60108 25200.00000 0 8178986.061 18025998.857 -16064393.013 10 0 60108 26100.00000 0 6646320.741 16561140.761 -18205620.400 10 0 60108 27000.00000 0 4818206.370 15065762.652 -19992617.610 10 0 60108 27900.00000 0 2722314.222 13599602.063 -21390642.298 10 0 60108 28800.00000 0 397910.406 12217556.860 -22372535.336 10 0 60108 29700.00000 0 -2105530.082 10967416.094 -22919247.339 10 0 60108 30600.00000 0 -4730141.074 9887910.400 -23020205.827 10 0 60108 31500.00000 0 -7411839.341 9007163.403 -22673516.309 10 0 60108 32400.00000 0 -10082764.893 8341608.395 -21885993.854 10 0 60108 33300.00000 0 -12673886.218 7895414.820 -20673024.944 10 0 60108 34200.00000 0 -15117662.321 7660447.559 -19058262.642 10 0 60108 35100.00000 0 -17350651.176 7616759.479 -17073161.302 10 0 60108 36000.00000 0 -19315956.472 7733595.326 -14756360.017 10 0 60108 36900.00000 0 -20965411.244 7970863.504 -12152927.002 10 0 60108 37800.00000 0 -22261408.089 8281012.644 -9313479.716 10 0 60108 38700.00000 0 -23178300.406 8611232.837 -6293197.989 10 0 60108 39600.00000 0 -23703317.089 8905887.863 -3150749.576 10 0 60108 40500.00000 0 -23836953.495 9109075.013 52850.756 10 0 60108 41400.00000 0 -23592823.497 9167203.885 3255426.220 10 0 60108 42300.00000 0 -22996979.948 9031484.864 6394843.797 10 0 60108 43200.00000 0 -22086733.170 8660221.894 9410217.302 10 0 60108 44100.00000 0 -20909017.924 8020812.595 12243084.408 10 0 60108 45000.00000 0 -19518378.065 7091371.128 14838534.950 10 0 60108 45900.00000 0 -17974653.794 5861905.193 17146269.041 10 0 60108 46800.00000 0 -16340468.503 4334997.168 19121565.102 10 0 60108 47700.00000 0 -14678620.254 2525960.134 20726139.743 10 0 60108 48600.00000 0 -13049486.510 462461.303 21928883.668 10 0 60108 49500.00000 0 -11508549.925 -1816372.662 22706460.152 10 0 60108 50400.00000 0 -10104147.720 -4261332.516 23043755.163 10 0 60108 51300.00000 0 -8875537.772 -6814929.807 22934170.842 10 0 60108 52200.00000 0 -7851361.350 -9413553.430 22379756.858 10 0 60108 53100.00000 0 -7048566.053 -11989891.426 21391176.871 10 0 60108 54000.00000 0 -6471833.495 -14475518.935 19987510.260 10 0 60108 54900.00000 0 -6113535.388 -16803546.149 18195892.136 10 0 60108 55800.00000 0 -5954219.836 -18911217.102 16050997.614 10 0 60108 56700.00000 0 -5963607.498 -20742351.836 13594379.228 10 0 60108 57600.00000 0 -6102055.897 -22249530.456 10873669.234 10 0 60108 58500.00000 0 -6322430.361 -23395927.832 7941661.414 10 0 60108 59400.00000 0 -6572302.687 -24156721.958 4855289.492 10 0 60108 60300.00000 0 -6796384.462 -24520016.519 1674521.714 10 0 60108 61200.00000 0 -6939091.670 -24487238.459 -1538806.879 10 0 60108 62100.00000 0 -6947131.280 -24072993.379 -4722201.394 10 0 60108 63000.00000 0 -6771999.257 -23304384.590 -7813729.109 10 0 60108 63900.00000 0 -6372282.941 -22219824.370 -10753231.896 10 0 60108 64800.00000 0 -5715668.915 -20867387.614 -13483504.534 10 0 60108 65700.00000 0 -4780569.923 -19302777.571 -15951415.095 10 0 60108 66600.00000 0 -3557300.609 -17586989.753 -18108944.809 10 0 60108 67500.00000 0 -2048751.049 -15783772.887 -19914126.631 10 0 60108 68400.00000 0 -270528.396 -13956994.123 -21331864.022 10 0 60108 69300.00000 0 1749440.427 -12168019.571 -22334613.887 10 0 60108 70200.00000 0 3971829.321 -10473220.280 -22902920.645 10 0 60108 71100.00000 0 6347319.102 -8921708.074 -23025791.357 10 0 60108 72000.00000 0 8818430.944 -7553395.797 -22700905.047 10 0 60108 72900.00000 0 11321711.100 -6397462.460 -21934652.619 10 0 60108 73800.00000 0 13790176.192 -5471286.602 -20742006.979 10 0 60108 74700.00000 0 16155917.421 -4779891.345 -19146226.275 10 0 60108 75600.00000 0 18352755.483 -4315922.987 -17178396.259 10 0 60108 76500.00000 0 20318835.846 -4060162.558 -14876820.894 10 0 60108 77400.00000 0 21999056.516 -3982547.331 -12286273.193 10 0 60108 78300.00000 0 23347227.423 -4043657.846 -9457121.043 10 0 60108 79200.00000 0 24327871.838 -4196606.521 -6444345.133 10 0 60108 80100.00000 0 24917595.150 -4389247.006 -3306468.323 10 0 60108 81000.00000 0 25105964.567 -4566610.104 -104417.494 10 0 60108 81900.00000 0 24895863.743 -4673462.604 3099659.793 10 0 60108 82800.00000 0 24303308.418 -4656880.354 6243600.582 10 0 60108 83700.00000 0 23356731.657 -4468726.497 9266430.241 10 0 60108 84600.00000 0 22095769.455 -4067929.937 12109541.278 10 0 60108 85500.00000 0 20569598.190 -3422467.651 14717824.536 10 0 60109 0.00000 0 18834894.119 -2510967.189 17040731.033 10 0 60109 900.00000 0 16953499.444 -1323860.985 19033245.665 10 0 60109 1800.00000 0 14989894.701 135955.259 20656751.521 10 0 60109 2700.00000 0 13008579.509 1852990.127 21879773.072 10 0 60109 3600.00000 0 11071472.523 3799555.425 22678581.438 10 0 60109 4500.00000 0 9235437.280 5936681.589 23037651.975 10 0 60109 5400.00000 0 7550036.210 8215512.819 22949965.581 10 0 60109 6300.00000 0 6055605.424 10579125.511 22417148.059 10 0 60109 7200.00000 0 4781729.670 12964695.983 21449444.666 10 0 60109 8100.00000 0 3746180.285 15305928.932 20065529.870 10 0 60109 9000.00000 0 2954359.935 17535647.031 18292155.162 10 0 60109 9900.00000 0 2399276.996 19588434.974 16163640.786 10 0 60109 10800.00000 0 2062050.430 21403228.583 13721220.102 10 0 60109 11700.00000 0 1912923.867 22925741.376 11012248.191 10 0 60109 12600.00000 0 1912746.198 24110627.152 8089289.170 10 0 60109 13500.00000 0 2014856.172 24923287.824 5009099.234 10 0 60109 14400.00000 0 2167291.211 25341250.141 1831524.834 10 0 60109 15300.00000 0 2315226.611 25355052.802 -1381662.533 10 0 60109 16200.00000 0 2403541.247 24968606.001 -4567971.902 10 0 60109 17100.00000 0 2379400.167 24199007.643 -7665414.698 10 0 60109 18000.00000 0 2194743.553 23075823.533 -10613718.192 10 0 60109 18900.00000 0 1808575.297 21639861.621 -13355506.041 10 0 60109 19800.00000 0 1188952.919 19941491.886 -15837422.045 10 0 60109 20700.00000 0 314593.243 18038582.739 -18011174.451 10 0 60109 21600.00000 0 -823975.376 15994141.020 -19834479.945 10 0 60109 22500.00000 0 -2223764.150 13873755.050 -21271888.686 10 0 60109 23400.00000 0 -3869206.743 11742948.311 -22295474.232 10 0 60109 24300.00000 0 -5732579.843 9664554.834 -22885375.148 10 0 60109 25200.00000 0 -7774944.623 7696226.084 -23030178.084 10 0 60109 26100.00000 0 -9947570.286 5888173.324 -22727135.304 10 0 60109 27000.00000 0 -12193780.662 4281239.199 -21982212.901 10 0 60109 27900.00000 0 -14451147.128 2905378.198 -20809969.189 10 0 60109 28800.00000 0 -16653936.507 1778608.339 -19233265.977 10 0 60109 29700.00000 0 -18735712.062 906476.446 -17282818.642 10 0 60109 30600.00000 0 -20631979.171 282057.819 -14996593.929 10 0 60109 31500.00000 0 -22282765.431 -113511.408 -12419067.350 10 0 60109 32400.00000 0 -23635027.634 -309993.263 -9600354.774 10 0 60109 33300.00000 0 -24644785.310 -346543.689 -6595235.233 10 0 60109 34200.00000 0 -25278891.954 -269809.887 -3462084.166 10 0 60109 35100.00000 0 -25516370.274 -131710.715 -261738.051 10 0 60109 36000.00000 0 -25349256.115 13005.108 2943687.262 10 0 60109 36900.00000 0 -24782916.304 109319.111 6092001.333 10 0 60109 37800.00000 0 -23835827.758 104512.768 9122143.499 10 0 60109 38700.00000 0 -22538827.668 -49362.109 11975363.457 10 0 60109 39600.00000 0 -20933866.671 -393216.796 14596355.318 10 0 60109 40500.00000 0 -19072317.452 -958958.669 16934323.515 10 0 60109 41400.00000 0 -17012909.553 -1767906.861 18943960.487 10 0 60109 42300.00000 0 -14819376.441 -2829657.547 20586317.899 10 0 60109 43200.00000 0 -12557912.505 -4141447.024 21829555.331 10 0 60109 44100.00000 0 -10294545.224 -5688040.088 22649552.744 10 0 60109 45000.00000 0 -8092531.003 -7442149.463 23030375.539 10 0 60109 45900.00000 0 -6009881.993 -9365370.041 22964583.674 10 0 60109 46800.00000 0 -4097125.685 -11409590.552 22453379.062 10 0 60109 47700.00000 0 -2395389.442 -13518825.353 21506588.236 10 0 60109 48600.00000 0 -934888.800 -15631391.663 20142480.121 10 0 60109 49500.00000 0 266118.275 -17682343.013 18387421.682 10 0 60109 50400.00000 0 1201868.088 -19606058.632 16275377.092 10 0 60109 51300.00000 0 1879096.863 -21338881.687 13847259.048 10 0 60109 52200.00000 0 2316515.422 -22821696.634 11150143.685 10 0 60109 53100.00000 0 2543775.124 -24002337.991 8236363.435 10 0 60109 54000.00000 0 2599968.828 -24837729.292 5162494.704 10 0 60109 54900.00000 0 2531730.376 -25295661.949 1988259.709 10 0 60109 55800.00000 0 2391013.283 -25356138.423 -1224636.191 10 0 60109 56700.00000 0 2232643.243 -25012222.337 -4413708.669 10 0 60109 57600.00000 0 2111748.888 -24270358.844 -7516916.102 10 0 60109 58500.00000 0 2081180.674 -23150150.978 -10473874.024 10 0 60109 59400.00000 0 2189028.428 -21683600.818 -13227037.861 10 0 60109 60300.00000 0 2476343.963 -19913847.054 -15722829.996 10 0 60109 61200.00000 0 2975166.464 -17893451.873 -17912688.442 10 0 60109 62100.00000 0 3706935.389 -15682309.241 -19754016.162 10 0 60109 63000.00000 0 4681359.065 -13345262.451 -21211012.277 10 0 60109 63900.00000 0 5895787.765 -10949531.018 -22255368.885 10 0 60109 64800.00000 0 7335118.523 -8562054.707 -22866820.159 10 0 60109 65700.00000 0 8972236.481 -6246865.697 -23033533.337 10 0 60109 66600.00000 0 10768974.814 -4062598.382 -22752334.449 10 0 60109 67500.00000 0 12677553.494 -2060240.238 -22028764.856 10 0 60109 68400.00000 0 14642436.991 -281216.731 -20876967.900 10 0 60109 69300.00000 0 16602533.406 1244110.867 -19319408.248 10 0 60109 70200.00000 0 18493643.237 2497473.441 -17386429.666 10 0 60109 71100.00000 0 20251055.470 3473206.417 -15115660.004 10 0 60109 72000.00000 0 21812182.471 4178226.854 -12551275.145 10 0 60109 72900.00000 0 23119123.498 4631478.031 -9743136.376 10 0 60109 73800.00000 0 24121049.654 4862866.674 -6745818.101 10 0 60109 74700.00000 0 24776310.511 4911739.171 -3617545.017 10 0 60109 75600.00000 0 25054174.363 4824962.514 -419059.652 10 0 60109 76500.00000 0 24936129.492 4654692.137 2787557.530 10 0 60109 77400.00000 0 24416692.185 4455921.890 5940092.265 10 0 60109 78300.00000 0 23503688.074 4283920.333 8977401.372 10 0 60109 79200.00000 0 22217995.299 4191662.091 11840595.012 10 0 60109 80100.00000 0 20592760.576 4227362.983 14474173.517 10 0 60109 81000.00000 0 18672121.057 4432223.034 16827097.108 10 0 60109 81900.00000 0 16509485.350 4838472.571 18853768.374 10 0 60109 82800.00000 0 14165445.156 5467803.766 20514909.105 10 0 60109 83700.00000 0 11705404.029 6330253.788 21778315.355 10 0 60109 84600.00000 0 9197021.184 7423586.942 22619476.881 10 0 60109 85500.00000 0 6707575.744 8733202.384 23022049.644 10 0 60110 0.00000 0 4301360.014 10232572.182 22978172.762 10 0 60110 900.00000 0 2037207.658 11884193.470 22488623.861 10 0 60110 1800.00000 0 -33738.510 13641014.363 21562809.850 10 0 60110 2700.00000 0 -1869931.669 15448278.242 20218592.773 10 0 60110 3600.00000 0 -3440917.517 17245708.950 18481953.268 10 0 60110 4500.00000 0 -4728361.845 18969947.668 16386497.246 10 0 60110 5400.00000 0 -5726566.620 20557140.534 13972814.222 10 0 60110 6300.00000 0 -6442453.420 21945569.358 11287698.613 10 0 60110 7200.00000 0 -6895015.210 23078215.449 8383248.199 10 0 60110 8100.00000 0 -7114259.762 23905148.836 5315856.533 10 0 60110 9000.00000 0 -7139689.550 24385641.949 2145118.470 10 0 60110 9900.00000 0 -7018382.642 24489918.006 -1067329.880 10 0 60110 10800.00000 0 -6802756.267 24200459.508 -4259013.873 10 0 60110 11700.00000 0 -6548108.433 23512820.581 -7367841.734 10 0 60110 12600.00000 0 -6310042.611 22435907.926 -10333319.957 10 0 60110 13500.00000 0 -6141885.612 20991717.595 -13097738.160 10 0 60110 14400.00000 0 -6092209.199 19214537.952 -15607299.432 10 0 60110 15300.00000 0 -6202561.494 17149651.867 -17813173.348 10 0 60110 16200.00000 0 -6505505.289 14851592.356 -19672450.622 10 0 60110 17100.00000 0 -7023047.185 12382024.714 -21148980.501 10 0 60110 18000.00000 0 -7765524.757 9807343.871 -22214074.498 10 0 60110 18900.00000 0 -8730999.393 7196087.450 -22847062.974 10 0 60110 19800.00000 0 -9905180.984 4616272.484 -23035694.037 10 0 60110 20700.00000 0 -11261888.045 2132766.758 -22776367.444 10 0 60110 21600.00000 0 -12764024.294 -195196.107 -22074199.419 10 0 60110 22500.00000 0 -14365030.936 -2316254.963 -20942917.549 10 0 60110 23400.00000 0 -16010753.838 -4188820.483 -19404588.185 10 0 60110 24300.00000 0 -17641647.453 -5782557.636 -17489181.927 10 0 60110 25200.00000 0 -19195223.080 -7079390.890 -15233985.840 10 0 60110 26100.00000 0 -20608638.842 -8073991.820 -12682874.014 10 0 60110 27000.00000 0 -21821322.758 -8773730.523 -9885450.787 10 0 60110 27900.00000 0 -22777518.846 -9198094.753 -6896083.423 10 0 60110 28800.00000 0 -23428649.436 -9377602.934 -3772843.287 10 0 60110 29700.00000 0 -23735394.588 -9352258.493 -576376.303 10 0 60110 30600.00000 0 -23669401.413 -9169612.059 2631275.128 10 0 60110 31500.00000 0 -23214551.663 -8882514.456 5787875.612 10 0 60110 32400.00000 0 -22367734.564 -8546656.243 8832202.140 10 0 60110 33300.00000 0 -21139092.606 -8217998.233 11705227.980 10 0 60110 34200.00000 0 -19551730.060 -7950201.813 14351262.222 10 0 60110 35100.00000 0 -17640896.379 -7792167.563 16719023.266 10 0 60110 36000.00000 0 -15452678.377 -7785785.895 18762625.989 10 0 60110 36900.00000 0 -13042255.378 -7963994.375 20442464.156 10 0 60110 37800.00000 0 -10471789.383 -8349223.355 21725971.779 10 0 60110 38700.00000 0 -7808037.189 -8952295.357 22588249.509 10 0 60110 39600.00000 0 -5119782.655 -9771824.703 23012544.577 10 0 60110 40500.00000 0 -2475194.581 -10794143.163 22990575.536 10 0 60110 41400.00000 0 60781.476 -11993755.630 22522695.709 10 0 60110 42300.00000 0 2428890.369 -13334307.866 21617892.071 10 0 60110 43200.00000 0 4577792.310 -14770027.144 20293619.136 10 0 60110 44100.00000 0 6465954.148 -16247576.869 18575470.288 10 0 60110 45000.00000 0 8063129.108 -17708248.828 16496691.971 10 0 60110 45900.00000 0 9351363.949 -19090402.325 14097549.016 10 0 60110 46800.00000 0 10325491.971 -20332048.750 11424552.326 10 0 60110 47700.00000 0 10993091.538 -21373473.470 8529562.951 10 0 60110 48600.00000 0 11373912.151 -22159784.843 5468789.237 10 0 60110 49500.00000 0 11498792.488 -22643282.707 2301696.103 10 0 60110 50400.00000 0 11408116.350 -22785545.775 -910152.322 10 0 60110 51300.00000 0 11149872.187 -22559148.920 -4104293.909 10 0 60110 52200.00000 0 10777398.840 -21948936.717 -7218589.602 10 0 60110 53100.00000 0 10346913.728 -20952798.277 -10192439.711 10 0 60110 54000.00000 0 9914929.010 -19581909.513 -12967970.852 10 0 60110 54900.00000 0 9535666.181 -17860431.574 -15491169.522 10 0 60110 55800.00000 0 9258579.542 -15824677.307 -17712939.419 10 0 60110 56700.00000 0 9126094.327 -13521780.134 -19590061.362 10 0 60110 57600.00000 0 9171655.969 -11007920.780 -21086036.807 10 0 60110 58500.00000 0 9418173.595 -8346185.848 -22171798.444 10 0 60110 59400.00000 0 9876923.984 -5604147.634 -22826274.206 10 0 60110 60300.00000 0 10546962.529 -2851266.040 -23036794.053 10 0 60110 61200.00000 0 11415066.248 -156220.721 -22799332.044 10 0 60110 62100.00000 0 12456211.306 2415715.751 -22118579.432 10 0 60110 63000.00000 0 13634565.001 4805154.938 -21007847.831 10 0 60110 63900.00000 0 14904950.448 6960817.385 -19488804.664 10 0 60110 64800.00000 0 16214722.301 8841413.717 -17591046.372 10 0 60110 65700.00000 0 17505974.642 10417104.830 -15351517.853 10 0 60110 66600.00000 0 18717988.067 11670481.748 -12813789.618 10 0 60110 67500.00000 0 19789813.044 12597025.878 -10027206.859 10 0 60110 68400.00000 0 20662880.805 13205032.185 -7045927.120 10 0 60110 69300.00000 0 21283531.890 13515000.304 -3927865.503 10 0 60110 70200.00000 0 21605355.943 13558520.905 -733568.131 10 0 60110 71100.00000 0 21591244.313 13376705.760 2474964.033 10 0 60110 72000.00000 0 21215069.148 13018228.975 5635477.896 10 0 60110 72900.00000 0 20462918.392 12537063.045 8686674.001 10 0 60110 73800.00000 0 19333834.810 11990005.966 11569391.958 10 0 60110 74700.00000 0 17840027.891 11434104.133 14227752.636 10 0 60110 75600.00000 0 16006549.578 10924079.867 16610235.353 10 0 60110 76500.00000 0 13870446.972 10509871.848 18670669.714 10 0 60110 77400.00000 0 11479426.859 10234391.844 20369123.562 10 0 60110 78300.00000 0 8890086.949 10131591.753 21672670.626 10 0 60110 79200.00000 0 6165786.443 10224922.009 22556023.825 10 0 60110 80100.00000 0 3374243.318 10526245.952 23002022.622 10 0 60110 81000.00000 0 584956.765 11035255.874 23001965.535 10 0 60110 81900.00000 0 -2133439.648 11739415.623 22555781.590 10 0 60110 82800.00000 0 -4715785.634 12614432.884 21672037.298 10 0 60110 83700.00000 0 -7102855.733 13625242.287 20367778.594 10 0 60110 84600.00000 0 -9243573.685 14727459.219 18668210.048 10 0 60110 85500.00000 0 -11096888.450 15869244.546 16606216.594 99